CAPE
nan nan nan nan nan nan nan nan 4 4 nan nan nan nan nan nan 26 26 70 88 88 67 25 12 12 3 nan nan 0 0 0 1 1 1 0 0 nan nan nan nan nan nan nan nan nan nan nan nan nan nan nan nan nan nan nan nan nan nan nan nan nan nan nan nan nan nan nan nan nan nan nan nan nan nan nan nan nan nan nan nan nan nan nan nan nan nan
nan nan nan nan nan nan nan nan 5 5 2 nan nan nan nan nan 8 8 87 89 89 39 17 13 13 11 4 nan 0 0 0 1 1 1 1 0 nan nan nan nan nan nan nan nan nan nan nan nan nan nan nan nan nan nan nan nan nan nan nan nan nan nan nan nan nan nan nan nan nan nan nan nan nan nan nan nan nan nan nan nan nan nan nan nan nan nan
nan nan nan nan nan nan 1 nan nan nan 6 nan nan nan nan nan 5 5 44 62 62 21 11 9 9 13 12 0 0 0 0 1 1 1 1 1 0 0 nan nan nan nan nan nan nan nan nan nan nan nan nan nan nan nan nan nan nan nan nan nan nan nan nan nan nan nan nan nan nan nan nan nan nan nan nan nan nan nan nan nan nan nan nan nan nan nan
nan nan nan nan nan nan nan nan nan nan nan nan nan nan nan 2 10 10 24 29 29 19 15 13 13 12 16 9 1 1 1 1 3 3 3 2 1 1 0 nan nan nan nan nan nan nan nan nan nan nan nan nan nan nan nan nan nan nan nan nan nan nan nan nan nan nan nan nan nan nan nan nan nan nan nan nan nan nan nan nan nan nan nan nan nan nan
nan nan nan nan nan nan nan nan nan nan nan nan nan nan nan 1 5 5 9 7 7 15 28 29 29 19 14 13 7 7 4 3 5 5 5 2 1 1 1 0 0 0 nan nan nan nan nan nan nan nan nan nan nan nan nan nan nan nan nan nan nan nan nan nan nan nan nan nan nan nan nan nan nan nan nan nan nan nan nan nan nan nan nan nan nan nan
nan nan nan nan nan nan nan nan nan nan nan nan nan nan nan nan nan nan 2 nan nan 4 20 38 38 30 22 21 12 12 8 8 7 7 5 3 1 1 1 1 1 1 0 0 0 nan nan nan nan nan nan nan nan nan nan nan nan nan nan nan nan nan nan nan nan nan nan nan nan nan nan nan nan nan nan nan nan nan nan nan nan nan nan nan nan nan
nan nan nan nan nan nan nan nan nan nan nan nan nan nan nan nan nan nan 1 nan nan 0 0 nan nan 13 43 12 10 10 13 12 10 10 8 4 2 2 1 1 1 1 1 0 0 0 nan nan nan nan nan nan nan nan nan nan nan nan nan nan nan nan nan nan nan nan nan nan nan nan nan nan nan nan nan nan nan nan nan nan nan nan nan nan nan nan
8 nan nan nan nan nan nan nan nan nan 4 nan nan nan nan nan nan nan nan 2 2 nan nan nan nan nan nan 60 30 30 19 16 14 14 13 9 4 4 2 0 0 nan nan nan nan nan nan nan nan nan nan nan nan nan nan nan nan nan nan nan nan nan nan nan nan nan nan nan nan nan nan nan nan nan nan nan nan nan nan nan nan nan nan nan nan nan
49 9 nan nan nan nan nan nan nan nan nan nan nan nan nan nan nan nan 0 nan nan nan nan 2 2 6 7 12 29 29 18 8 8 8 7 5 5 5 3 1 1 0 nan nan nan nan nan nan nan nan nan nan nan nan nan nan nan nan nan nan nan nan nan nan nan nan nan nan nan nan nan nan nan nan nan nan nan nan nan nan nan nan nan nan nan nan
16 4 nan nan nan nan nan nan nan nan nan nan 5 5 nan nan nan nan 0 nan nan nan nan 6 6 22 15 0 10 10 24 7 6 6 5 1 1 1 1 nan nan 0 nan nan nan nan nan nan nan nan nan nan nan nan nan nan nan nan nan nan nan nan nan nan nan nan nan nan nan nan nan nan nan nan nan nan nan nan nan nan nan nan nan nan nan nan
8 nan nan nan nan nan nan nan nan nan nan nan 29 29 4 nan nan nan 4 2 2 nan nan 0 0 1 nan nan nan nan 6 15 5 5 6 3 2 2 0 0 0 nan nan nan nan nan nan nan nan nan nan nan nan nan nan nan nan nan nan nan nan nan nan nan nan nan nan nan nan nan nan nan nan nan nan nan nan nan nan nan nan nan nan nan nan nan
19 nan nan nan nan 0 0 nan nan nan 0 36 29 29 9 nan 9 9 10 8 8 3 nan nan nan nan nan nan nan nan nan 25 12 12 8 8 4 4 5 2 2 1 1 nan nan nan 0 0 0 nan nan nan nan nan nan nan nan nan nan nan nan nan nan nan nan nan nan nan nan nan nan nan nan nan nan nan nan nan nan nan nan nan nan nan nan nan
9 nan nan nan nan 0 nan 1 1 1 9 53 87 87 18 2 17 17 24 23 23 2 nan nan nan nan nan nan nan nan nan 19 16 16 0 nan nan nan 7 1 1 0 1 0 0 1 1 0 0 0 nan nan 0 0 0 nan nan nan nan nan nan nan nan nan nan nan nan nan nan nan nan nan nan nan nan nan nan nan nan nan nan nan nan nan nan nan
1 1 7 3 3 nan 2 4 8 8 5 nan nan nan nan nan 18 18 22 17 17 nan nan nan nan nan nan 0 nan nan nan 0 1 1 nan nan nan nan nan nan nan nan nan nan nan nan nan 1 1 2 0 0 2 2 2 nan nan nan nan nan nan nan nan nan nan nan nan nan nan nan nan nan nan nan nan nan nan nan nan nan nan nan nan nan nan nan
nan 0 17 9 9 nan 0 5 15 15 1 0 0 0 0 nan 10 10 19 5 5 nan nan nan nan nan nan 1 1 1 0 nan 15 15 nan nan nan nan nan nan nan nan nan nan nan nan nan nan nan 4 2 3 3 3 1 nan nan nan nan nan nan nan nan nan nan nan nan nan nan nan nan nan nan nan nan nan nan nan nan nan nan nan nan nan nan nan
0 4 50 nan nan nan nan nan nan nan nan 0 0 0 nan nan nan nan 7 2 2 nan nan nan nan nan 0 1 2 2 1 0 3 3 nan nan nan nan nan nan nan nan nan nan nan nan nan nan nan 0 8 2 nan nan nan nan nan nan nan nan nan nan nan nan nan nan nan nan 0 0 nan nan nan nan nan nan nan nan nan nan nan nan nan nan nan nan
1 4 54 nan nan 0 0 nan nan nan nan 0 0 0 nan nan nan nan nan 1 1 nan 0 nan nan nan nan 0 1 1 1 nan nan nan nan nan nan nan nan nan nan nan nan nan nan nan nan nan nan nan 2 nan nan nan nan nan nan nan nan nan nan nan nan nan nan nan nan nan nan nan nan nan nan nan nan nan nan nan nan nan nan nan nan nan nan nan
1 2 5 1 1 1 1 0 0 0 nan 0 0 0 0 nan nan nan nan nan nan 0 2 2 2 nan nan 0 1 1 1 0 nan nan nan nan nan nan nan nan nan nan nan nan nan nan nan nan nan nan nan nan nan nan nan nan nan nan nan nan nan nan nan nan nan nan nan nan nan nan nan nan nan nan nan nan nan nan nan nan nan nan nan nan nan nan
1 1 2 2 2 2 2 1 1 1 1 0 0 0 0 0 nan nan nan nan nan 3 6 9 9 16 nan 0 2 2 1 0 nan nan nan nan nan nan nan nan nan nan nan nan nan nan nan nan nan nan nan nan nan nan nan nan nan nan nan nan nan nan nan nan nan nan nan nan nan nan nan nan nan nan nan nan nan nan nan nan nan nan nan nan nan nan
1 1 1 2 2 2 2 2 1 1 1 0 0 0 nan nan 1 1 2 4 4 12 6 19 19 8 nan nan 1 1 1 nan nan nan nan 0 1 1 nan nan nan nan nan nan nan nan nan 0 0 0 nan nan nan nan nan nan nan nan nan nan nan nan nan nan nan nan nan nan nan nan nan nan nan nan nan nan nan nan nan nan nan nan nan nan nan nan
1 1 2 3 3 3 3 3 4 4 2 0 0 0 nan nan nan nan 2 3 3 10 9 1 1 nan nan nan 1 1 1 0 nan nan nan 1 1 1 1 nan nan nan nan nan nan nan 0 0 0 0 2 nan nan nan nan nan nan nan nan nan nan nan nan nan nan nan nan nan nan nan nan nan nan nan nan nan nan nan nan nan nan nan nan nan nan nan
0 1 3 3 3 3 3 4 4 4 3 0 0 0 nan nan nan nan nan 0 0 3 nan nan nan 0 0 0 2 2 2 0 nan nan nan 1 2 2 1 nan nan 0 0 nan nan nan nan nan nan 0 1 nan nan nan nan nan nan nan nan nan nan nan nan nan nan nan nan nan nan nan nan nan nan nan nan nan nan nan nan nan nan nan nan nan nan nan
2 2 3 4 4 5 5 4 4 4 3 1 1 1 0 nan nan nan nan nan nan nan nan 1 1 1 1 1 2 2 1 1 nan nan nan nan 1 1 1 2 2 1 nan nan nan nan nan nan nan nan 1 nan nan nan nan nan nan nan nan nan nan nan nan nan nan nan nan nan nan nan nan nan nan nan nan nan nan nan nan nan nan nan nan nan nan nan
4 4 4 6 6 7 7 5 4 4 4 3 2 2 2 1 nan nan nan nan nan nan 0 1 1 1 1 1 1 1 1 1 nan nan nan nan 1 1 1 3 3 1 nan nan nan nan nan nan nan nan 2 nan nan nan nan nan nan nan nan nan nan nan nan nan nan nan nan nan nan nan nan nan nan nan nan nan nan nan nan nan nan nan nan nan nan nan
5 5 5 7 7 14 10 9 7 7 4 3 3 3 2 1 1 1 nan nan nan 0 0 0 0 0 1 1 0 0 1 0 nan nan nan 0 0 0 1 1 1 nan 0 0 0 nan nan nan nan nan nan nan nan nan nan nan nan nan nan nan nan nan nan nan nan nan nan nan nan nan nan nan nan nan nan nan nan nan nan nan nan nan nan nan nan nan
16 11 9 18 18 28 30 24 17 17 10 4 2 2 1 0 0 0 0 0 0 0 nan 0 0 0 1 0 1 1 1 0 nan nan nan nan nan nan 0 0 0 0 0 1 1 0 nan nan nan nan nan nan nan nan nan nan nan nan nan nan nan nan nan nan nan nan nan nan nan nan nan nan nan nan nan nan nan nan nan nan nan nan nan nan nan nan
31 31 31 30 30 29 28 27 23 23 18 9 2 2 1 nan nan nan nan nan nan nan nan nan nan 0 0 0 1 1 2 1 1 1 nan nan nan nan 0 1 1 2 2 2 2 1 0 nan nan nan nan nan nan nan nan nan nan nan nan nan nan nan nan nan nan nan nan nan nan nan nan nan nan nan nan nan nan nan nan nan nan nan nan nan nan nan
23 24 22 22 22 21 22 23 23 23 19 14 5 5 nan nan nan nan nan nan nan nan nan nan nan 0 0 1 2 2 1 1 1 1 1 nan nan nan nan 1 1 3 1 1 1 2 2 0 0 nan nan nan nan nan nan nan nan nan nan nan nan nan nan nan nan nan nan nan nan nan nan nan nan nan nan nan nan nan nan nan nan nan nan nan nan nan
12 15 17 18 18 16 15 17 22 22 20 15 6 6 nan nan nan nan 0 1 1 nan nan nan nan nan nan 0 1 1 0 1 1 1 1 nan nan nan 0 1 1 3 1 0 0 1 0 nan nan nan 1 nan nan nan nan nan nan nan nan nan nan nan nan nan nan nan nan nan nan nan nan nan nan nan nan nan nan nan nan nan nan nan nan nan nan nan
0 3 6 10 10 10 7 3 13 13 19 16 10 10 1 nan nan nan 0 0 0 nan nan nan nan nan nan 0 1 1 0 1 1 1 1 nan nan nan 0 0 0 1 0 nan nan nan nan nan nan nan nan 0 nan nan nan nan nan nan nan nan nan nan nan nan nan nan nan nan nan nan nan nan nan nan nan nan nan nan nan nan nan nan nan nan nan nan
nan nan nan 0 0 0 nan nan 2 2 11 13 10 10 3 0 nan nan nan nan nan nan nan nan nan nan nan nan 0 0 nan nan 1 1 0 nan nan nan nan nan nan nan nan nan nan nan 0 nan nan 0 nan nan nan nan nan nan nan nan nan nan nan nan nan nan nan nan nan nan nan nan nan nan nan nan nan nan nan nan nan nan nan nan nan nan nan nan
nan nan nan nan nan nan nan nan nan nan nan nan nan nan 2 2 1 1 nan nan nan nan nan nan nan nan nan nan nan nan nan nan 2 2 nan nan nan nan nan nan nan nan nan nan nan nan nan nan nan nan nan nan nan nan nan nan nan nan nan nan nan nan nan nan nan nan nan nan nan nan nan nan nan nan nan nan nan nan nan nan nan nan nan nan nan nan
nan nan nan nan nan nan nan nan nan nan nan nan nan nan nan 0 1 1 0 nan nan nan nan nan nan nan nan nan nan nan nan nan 3 3 0 nan nan nan nan nan nan nan nan nan nan nan nan nan nan nan nan nan nan nan nan nan nan nan nan nan nan nan nan nan nan nan nan nan nan nan nan nan nan nan nan nan nan nan nan nan nan nan nan nan nan nan
nan nan nan nan nan nan nan nan nan nan nan nan nan nan nan nan nan nan 0 0 0 nan nan nan nan nan nan nan nan nan nan nan 4 4 1 nan nan nan nan nan nan nan nan nan nan nan nan nan nan nan nan nan nan nan nan nan nan nan nan nan nan nan nan nan nan nan nan nan nan nan nan nan nan nan nan nan nan nan nan nan nan nan nan nan nan nan
nan nan nan nan nan nan nan 0 0 0 nan nan nan nan nan nan nan nan 0 0 0 nan nan nan nan nan nan nan nan nan nan nan 2 2 1 nan nan nan nan nan nan nan nan nan nan nan nan nan nan nan nan nan nan nan nan nan nan nan nan nan nan nan nan nan nan nan nan nan nan nan nan nan nan nan nan nan nan nan nan nan nan nan nan nan nan nan
nan nan nan nan nan nan nan 0 0 0 0 nan nan nan nan nan nan nan nan nan nan 0 1 0 0 nan nan nan nan nan nan nan 0 0 0 nan nan nan nan nan nan nan nan nan nan nan nan nan nan nan nan nan nan nan nan nan nan nan nan nan nan nan nan nan nan nan nan nan nan nan nan nan nan nan nan nan nan nan nan nan nan nan 0 nan nan nan
nan nan nan nan nan nan nan nan nan nan nan nan nan nan nan nan nan nan nan nan nan nan 0 2 2 1 2 nan nan nan nan nan nan nan nan nan nan nan nan nan nan nan nan nan nan nan nan nan nan nan nan nan nan nan nan nan nan nan nan nan nan nan nan nan nan nan nan nan nan nan nan nan nan nan nan nan nan nan nan nan nan nan nan nan nan nan
nan nan nan nan nan nan nan nan nan nan nan nan nan nan nan nan nan nan nan nan nan nan nan nan nan 0 5 3 nan nan nan nan nan nan nan nan nan nan nan 0 0 0 nan nan nan nan nan nan nan nan nan nan nan nan nan nan nan nan nan nan nan nan nan nan nan nan nan nan nan nan nan nan nan nan nan nan nan nan nan nan nan nan nan nan nan nan
nan nan nan nan nan nan nan nan nan nan nan nan nan nan nan nan nan nan nan nan nan nan nan nan nan nan 0 0 0 0 nan nan nan nan nan nan nan nan nan nan nan 0 nan nan nan nan nan nan nan nan nan nan nan nan nan nan nan nan nan nan nan nan nan nan nan nan nan nan nan nan nan nan nan nan nan nan nan nan nan nan nan nan nan nan nan nan
nan nan nan 0 0 nan nan nan nan nan nan nan nan nan nan nan nan nan nan nan nan nan nan nan nan nan nan nan nan nan nan nan nan nan nan nan nan nan nan nan nan nan nan nan nan nan nan nan nan nan nan nan nan nan nan nan nan nan nan nan nan nan nan nan nan nan nan nan nan nan nan nan nan nan nan nan nan nan nan nan nan nan nan nan nan nan
nan nan nan nan nan nan nan nan nan nan nan nan nan nan nan nan nan nan nan nan nan nan nan nan nan nan nan nan nan nan nan nan nan nan nan nan nan nan nan nan nan nan nan nan nan nan nan nan nan nan nan nan nan nan nan nan nan nan nan nan nan nan nan nan nan nan nan nan nan nan nan nan nan nan nan nan nan nan nan nan nan nan nan nan nan nan
0 nan nan nan nan nan nan nan nan nan nan nan nan nan nan nan nan nan nan nan nan nan nan nan nan nan nan nan nan nan nan nan nan nan nan nan nan nan nan nan nan nan nan nan nan nan nan nan nan nan nan nan nan nan nan nan nan nan nan nan nan nan nan nan nan nan nan nan nan nan nan nan nan nan nan nan nan nan nan nan nan nan nan nan nan nan
nan nan nan nan nan nan nan nan nan nan nan nan nan nan nan nan nan nan nan nan nan nan nan nan nan nan nan nan nan nan nan nan nan nan nan nan nan nan nan nan nan nan nan nan nan nan nan nan nan nan nan nan nan nan nan nan nan nan nan nan nan nan nan nan nan nan nan nan nan nan nan nan nan nan nan nan nan nan nan nan nan nan nan nan nan nan
nan nan nan nan nan nan nan nan nan nan nan nan nan nan nan nan nan nan nan nan nan nan nan nan nan nan nan nan nan nan nan nan nan nan nan nan nan nan nan nan nan nan nan nan nan nan nan nan nan nan nan nan nan nan nan nan nan nan nan nan nan nan nan nan nan nan nan nan nan nan nan nan nan nan nan nan nan nan nan nan nan nan nan nan nan nan
nan nan nan nan nan nan nan nan nan nan nan nan nan nan nan nan nan nan nan nan nan nan nan nan nan nan nan nan nan nan nan nan nan nan nan nan nan nan nan nan nan nan nan nan nan nan nan nan nan nan nan nan nan nan nan nan nan nan nan nan nan nan nan nan nan nan nan nan nan nan nan nan nan nan nan nan nan nan nan nan nan nan nan nan nan nan
nan nan nan nan nan nan nan nan nan nan nan nan nan nan nan nan nan nan nan nan nan nan nan nan nan nan nan nan nan nan nan nan nan nan nan nan nan nan nan nan nan nan nan nan nan nan nan nan nan nan nan nan nan nan nan nan nan nan nan nan nan nan nan 0 0 nan nan nan nan nan nan nan nan nan nan nan nan nan nan nan nan nan nan nan nan nan
nan nan nan nan nan nan nan nan nan nan nan nan nan nan nan nan nan nan nan nan nan nan nan nan nan nan nan nan nan nan nan nan nan nan nan nan nan nan nan nan nan nan nan nan nan nan nan nan nan nan nan nan nan nan nan nan nan nan nan nan nan nan 0 0 0 nan nan nan nan nan nan nan nan nan nan nan nan nan nan nan nan nan nan nan nan nan
nan nan nan nan nan nan nan nan nan nan nan nan nan nan nan nan nan nan nan nan nan nan nan nan nan nan nan nan nan nan nan nan nan nan nan nan nan nan nan nan nan nan nan nan nan nan nan nan nan nan nan nan nan nan nan nan nan nan nan nan nan 0 0 0 0 nan nan nan nan nan nan nan nan nan nan nan nan nan nan nan nan nan nan nan nan nan
nan nan nan nan nan nan nan nan nan nan nan nan nan nan nan nan nan nan nan nan nan nan nan nan nan nan nan nan nan nan nan nan nan nan nan nan nan nan nan nan nan nan nan nan nan nan nan nan nan nan nan nan nan nan nan nan nan nan nan 1 1 1 0 nan nan nan nan nan nan nan nan nan nan nan nan nan nan nan nan nan nan nan nan nan nan nan
nan nan nan nan nan nan nan nan nan nan nan nan nan nan nan nan nan nan nan nan nan nan nan nan nan nan nan nan nan nan nan nan nan nan nan nan nan nan nan nan nan nan nan nan nan nan nan nan nan nan nan nan nan nan nan 0 0 0 1 2 2 1 0 nan nan nan nan nan nan nan nan nan nan nan nan nan nan nan nan nan nan nan nan nan nan nan
0 nan nan nan nan nan nan nan nan nan nan nan nan nan nan nan nan nan nan nan nan nan nan nan nan nan nan nan nan nan nan nan nan nan nan nan nan nan nan nan nan nan nan nan nan nan nan nan nan nan 9 8 0 0 nan 0 0 1 1 0 0 0 nan nan nan nan nan nan nan nan nan nan nan nan nan nan nan nan nan nan nan nan nan nan nan nan
CIN
nan nan nan nan nan nan nan nan -83 -83 nan nan nan nan nan nan -10 -10 -6 -4 -4 -9 -29 -38 -38 -53 nan nan -0 -0 -0 -0 -0 -0 -0 -1 nan nan nan nan nan nan nan nan nan nan nan nan nan nan nan nan nan nan nan nan nan nan nan nan nan nan nan nan nan nan nan nan nan nan nan nan nan nan nan nan nan nan nan nan nan nan nan nan nan nan
nan nan nan nan nan nan nan nan -77 -77 -85 nan nan nan nan nan -34 -34 -5 -6 -6 -24 -42 -48 -48 -49 -57 nan -0 -0 -0 -0 -0 -0 -0 -1 nan nan nan nan nan nan nan nan nan nan nan nan nan nan nan nan nan nan nan nan nan nan nan nan nan nan nan nan nan nan nan nan nan nan nan nan nan nan nan nan nan nan nan nan nan nan nan nan nan nan
nan nan nan nan nan nan -0 nan nan nan -76 nan nan nan nan nan -54 -54 -24 -19 -19 -38 -51 -58 -58 -52 -52 -86 -0 -0 -0 -0 -0 -0 -0 -0 -1 -1 nan nan nan nan nan nan nan nan nan nan nan nan nan nan nan nan nan nan nan nan nan nan nan nan nan nan nan nan nan nan nan nan nan nan nan nan nan nan nan nan nan nan nan nan nan nan nan nan
nan nan nan nan nan nan nan nan nan nan nan nan nan nan nan -95 -58 -58 -42 -39 -39 -42 -51 -60 -60 -59 -52 -68 -99 -99 -0 -0 -0 -0 -0 -0 -0 -0 -0 nan nan nan nan nan nan nan nan nan nan nan nan nan nan nan nan nan nan nan nan nan nan nan nan nan nan nan nan nan nan nan nan nan nan nan nan nan nan nan nan nan nan nan nan nan nan nan
nan nan nan nan nan nan nan nan nan nan nan nan nan nan nan -110 -80 -80 -68 -70 -70 -57 -48 -53 -53 -60 -61 -65 -83 -83 -0 -0 -0 -0 -0 -0 -0 -0 -0 -0 -0 -0 nan nan nan nan nan nan nan nan nan nan nan nan nan nan nan nan nan nan nan nan nan nan nan nan nan nan nan nan nan nan nan nan nan nan nan nan nan nan nan nan nan nan nan nan
nan nan nan nan nan nan nan nan nan nan nan nan nan nan nan nan nan nan -92 nan nan -78 -63 -45 -45 -49 -58 -61 -76 -76 -90 -88 -0 -0 -0 -0 -0 -0 -0 -0 -0 -0 -0 -0 -0 nan nan nan nan nan nan nan nan nan nan nan nan nan nan nan nan nan nan nan nan nan nan nan nan nan nan nan nan nan nan nan nan nan nan nan nan nan nan nan nan nan
nan nan nan nan nan nan nan nan nan nan nan nan nan nan nan nan nan nan -94 nan nan -103 -125 nan nan -74 -44 -73 -85 -85 -82 -81 -0 -0 -0 -0 -0 -0 -0 -0 -0 -0 -0 -0 -0 -0 nan nan nan nan nan nan nan nan nan nan nan nan nan nan nan nan nan nan nan nan nan nan nan nan nan nan nan nan nan nan nan nan nan nan nan nan nan nan nan nan
-137 nan nan nan nan nan nan nan nan nan -75 nan nan nan nan nan nan nan nan -65 -65 nan nan nan nan nan nan -22 -29 -29 -36 -36 -38 -38 -44 -53 -69 -69 -0 -0 -0 nan nan nan nan nan nan nan nan nan nan nan nan nan nan nan nan nan nan nan nan nan nan nan nan nan nan nan nan nan nan nan nan nan nan nan nan nan nan nan nan nan nan nan nan nan
-92 -119 nan nan nan nan nan nan nan nan nan nan nan nan nan nan nan nan -50 nan nan nan nan -87 -87 -71 -65 -51 -19 -19 -29 -45 -43 -43 -45 -48 -53 -53 -62 -75 -75 -85 nan nan nan nan nan nan nan nan nan nan nan nan nan nan nan nan nan nan nan nan nan nan nan nan nan nan nan nan nan nan nan nan nan nan nan nan nan nan nan nan nan nan nan nan
-116 -117 nan nan nan nan nan nan nan nan nan nan -68 -68 nan nan nan nan -46 nan nan nan nan -67 -67 -35 -37 -74 -40 -40 -17 -44 -68 -68 -75 -92 -0 -0 -78 nan nan -76 nan nan nan nan nan nan nan nan nan nan nan nan nan nan nan nan nan nan nan nan nan nan nan nan nan nan nan nan nan nan nan nan nan nan nan nan nan nan nan nan nan nan nan nan
-117 nan nan nan nan nan nan nan nan nan nan nan -47 -47 -64 nan nan nan -44 -53 -53 nan nan -90 -90 -67 nan nan nan nan -55 -24 -51 -51 -64 -90 -93 -93 -97 -94 -94 nan nan nan nan nan nan nan nan nan nan nan nan nan nan nan nan nan nan nan nan nan nan nan nan nan nan nan nan nan nan nan nan nan nan nan nan nan nan nan nan nan nan nan nan nan
-86 nan nan nan nan -0 -0 nan nan nan -80 -20 -15 -15 -31 nan -79 -79 -59 -57 -57 -69 nan nan nan nan nan nan nan nan nan -0 -31 -31 -38 -42 -55 -55 -57 -63 -63 -0 -58 nan nan nan -2 -2 -2 nan nan nan nan nan nan nan nan nan nan nan nan nan nan nan nan nan nan nan nan nan nan nan nan nan nan nan nan nan nan nan nan nan nan nan nan nan
-0 nan nan nan nan -0 nan -0 -1 -1 -1 -3 -1 -1 -23 -70 -66 -66 -48 -58 -58 -86 nan nan nan nan nan nan nan nan nan -6 -1 -1 -73 nan nan nan -35 -50 -50 -53 -0 -0 -0 -0 -0 -2 -2 -2 nan nan -0 -0 -1 nan nan nan nan nan nan nan nan nan nan nan nan nan nan nan nan nan nan nan nan nan nan nan nan nan nan nan nan nan nan nan
-0 -0 -0 -61 -61 nan -0 -0 -0 -0 -0 nan nan nan nan nan -62 -62 -49 -64 -64 nan nan nan nan nan nan -0 nan nan nan -5 -1 -1 nan nan nan nan nan nan nan nan nan nan nan nan nan -0 -0 -0 -2 -0 -0 -0 -0 nan nan nan nan nan nan nan nan nan nan nan nan nan nan nan nan nan nan nan nan nan nan nan nan nan nan nan nan nan nan nan
nan -0 -27 -40 -40 nan -0 -0 -0 -0 -0 -0 -0 -0 -0 nan -60 -60 -29 -73 -73 nan nan nan nan nan nan -0 -0 -0 -0 nan -0 -0 nan nan nan nan nan nan nan nan nan nan nan nan nan nan nan -0 -0 -0 -0 -0 -0 nan nan nan nan nan nan nan nan nan nan nan nan nan nan nan nan nan nan nan nan nan nan nan nan nan nan nan nan nan nan nan
-0 -18 -0 nan nan nan nan nan nan nan nan -0 -0 -0 nan nan nan nan -44 -79 -79 nan nan nan nan nan -0 -0 -0 -0 -0 -72 -2 -2 nan nan nan nan nan nan nan nan nan nan nan nan nan nan nan -1 -0 -1 nan nan nan nan nan nan nan nan nan nan nan nan nan nan nan nan -1 -1 nan nan nan nan nan nan nan nan nan nan nan nan nan nan nan nan
-0 -0 -0 nan nan -0 -0 nan nan nan nan -0 -0 -0 nan nan nan nan nan -82 -82 nan -84 nan nan nan nan -0 -0 -0 -0 nan nan nan nan nan nan nan nan nan nan nan nan nan nan nan nan nan nan nan -0 nan nan nan nan nan nan nan nan nan nan nan nan nan nan nan nan nan nan nan nan nan nan nan nan nan nan nan nan nan nan nan nan nan nan nan
-0 -0 -0 -0 -0 -0 -0 -0 -0 -0 nan -0 -0 -0 -0 nan nan nan nan nan nan -86 -64 -75 -75 nan nan -0 -0 -0 -0 -0 nan nan nan nan nan nan nan nan nan nan nan nan nan nan nan nan nan nan nan nan nan nan nan nan nan nan nan nan nan nan nan nan nan nan nan nan nan nan nan nan nan nan nan nan nan nan nan nan nan nan nan nan nan nan
-0 -0 -0 -0 -0 -0 -0 -0 -0 -0 -0 -0 -0 -0 -0 -0 nan nan nan nan nan -48 -53 -52 -52 -35 nan -0 -0 -0 -0 -0 nan nan nan nan nan nan nan nan nan nan nan nan nan nan nan nan nan nan nan nan nan nan nan nan nan nan nan nan nan nan nan nan nan nan nan nan nan nan nan nan nan nan nan nan nan nan nan nan nan nan nan nan nan nan
-0 -0 -0 -0 -0 -0 -0 -0 -0 -0 -0 -0 -0 -0 nan nan -0 -0 -0 -0 -0 -0 -31 -38 -38 -54 nan nan -0 -0 -0 nan nan nan nan -0 -0 -0 nan nan nan nan nan nan nan nan nan -0 -0 -0 nan nan nan nan nan nan nan nan nan nan nan nan nan nan nan nan nan nan nan nan nan nan nan nan nan nan nan nan nan nan nan nan nan nan nan nan
-0 -0 -0 -0 -0 -0 -0 -0 -0 -0 -0 -0 -0 -0 nan nan nan nan -0 -0 -0 -0 -0 -34 -34 nan nan nan -0 -0 -0 -0 nan nan nan -0 -0 -0 -0 nan nan nan nan nan nan nan -0 -0 -0 -0 -0 nan nan nan nan nan nan nan nan nan nan nan nan nan nan nan nan nan nan nan nan nan nan nan nan nan nan nan nan nan nan nan nan nan nan nan
-0 -0 -0 -0 -0 -0 -0 -0 -0 -0 -0 -0 -0 -0 nan nan nan nan nan -3 -3 -3 nan nan nan -0 -0 -0 -0 -0 -0 -0 nan nan nan -0 -0 -0 -0 nan nan -0 -0 nan nan nan nan nan nan -0 -0 nan nan nan nan nan nan nan nan nan nan nan nan nan nan nan nan nan nan nan nan nan nan nan nan nan nan nan nan nan nan nan nan nan nan nan
-0 -0 -0 -0 -0 -0 -0 -0 -0 -0 -0 -0 -0 -0 -0 nan nan nan nan nan nan nan nan -0 -0 -0 -0 -0 -0 -0 -0 -0 nan nan nan nan -0 -0 -0 -0 -0 -0 nan nan nan nan nan nan nan nan -0 nan nan nan nan nan nan nan nan nan nan nan nan nan nan nan nan nan nan nan nan nan nan nan nan nan nan nan nan nan nan nan nan nan nan nan
-0 -0 -0 -0 -0 -0 -0 -0 -0 -0 -0 -0 -0 -0 -0 -0 nan nan nan nan nan nan -0 -0 -0 -0 -0 -0 -0 -0 -0 -0 nan nan nan nan -0 -0 -0 -0 -0 -0 nan nan nan nan nan nan nan nan -0 nan nan nan nan nan nan nan nan nan nan nan nan nan nan nan nan nan nan nan nan nan nan nan nan nan nan nan nan nan nan nan nan nan nan nan
-0 -0 -0 -0 -0 -0 -0 -0 -0 -0 -0 -0 -0 -0 -0 -0 -0 -0 nan nan nan -0 -1 -0 -0 -0 -0 -0 -0 -0 -0 -0 nan nan nan -0 -0 -0 -0 -0 -0 nan -0 -0 -0 nan nan nan nan nan nan nan nan nan nan nan nan nan nan nan nan nan nan nan nan nan nan nan nan nan nan nan nan nan nan nan nan nan nan nan nan nan nan nan nan nan
-0 -0 -0 -0 -0 -0 -0 -0 -0 -0 -0 -0 -0 -0 -0 -0 -0 -0 -0 -0 -0 -0 nan -0 -0 -0 -0 -0 -0 -0 -0 -0 nan nan nan nan nan nan -0 -0 -0 -0 -0 -0 -0 -0 nan nan nan nan nan nan nan nan nan nan nan nan nan nan nan nan nan nan nan nan nan nan nan nan nan nan nan nan nan nan nan nan nan nan nan nan nan nan nan nan
-0 -0 -0 -0 -0 -0 -0 -0 -0 -0 -0 -0 -0 -0 -0 nan nan nan nan nan nan nan nan nan nan -0 -0 -0 -0 -0 -0 -0 -0 -0 nan nan nan nan -0 -0 -0 -0 -0 -0 -0 -0 -0 nan nan nan nan nan nan nan nan nan nan nan nan nan nan nan nan nan nan nan nan nan nan nan nan nan nan nan nan nan nan nan nan nan nan nan nan nan nan nan
-0 -0 -0 -0 -0 -0 -0 -0 -0 -0 -0 -0 -0 -0 nan nan nan nan nan nan nan nan nan nan nan -0 -0 -0 -0 -0 -0 -0 -0 -0 -0 nan nan nan nan -0 -0 -0 -0 -0 -0 -0 -0 -0 -0 nan nan nan nan nan nan nan nan nan nan nan nan nan nan nan nan nan nan nan nan nan nan nan nan nan nan nan nan nan nan nan nan nan nan nan nan nan
-0 -0 -0 -0 -0 -0 -0 -0 -0 -0 -0 -0 -0 -0 nan nan nan nan -0 -0 -0 nan nan nan nan nan nan -0 -0 -0 -0 -0 -0 -0 -0 nan nan nan -1 -0 -0 -0 -0 -0 -0 -0 -0 nan nan nan -0 nan nan nan nan nan nan nan nan nan nan nan nan nan nan nan nan nan nan nan nan nan nan nan nan nan nan nan nan nan nan nan nan nan nan nan
-0 -0 -0 -0 -0 -0 -0 -0 -0 -0 -0 -0 -0 -0 -0 nan nan nan -0 -0 -0 nan nan nan nan nan nan -0 -0 -0 -0 -0 -0 -0 -0 nan nan nan -1 -0 -0 -0 -0 nan nan nan nan nan nan nan nan -0 nan nan nan nan nan nan nan nan nan nan nan nan nan nan nan nan nan nan nan nan nan nan nan nan nan nan nan nan nan nan nan nan nan nan
nan nan nan -0 -0 -0 nan nan -0 -0 -0 -0 -0 -0 -0 -0 nan nan nan nan nan nan nan nan nan nan nan nan -0 -0 nan nan -0 -0 -0 nan nan nan nan nan nan nan nan nan nan nan -0 nan nan -0 nan nan nan nan nan nan nan nan nan nan nan nan nan nan nan nan nan nan nan nan nan nan nan nan nan nan nan nan nan nan nan nan nan nan nan nan
nan nan nan nan nan nan nan nan nan nan nan nan nan nan -0 -0 -0 -0 nan nan nan nan nan nan nan nan nan nan nan nan nan nan -0 -0 nan nan nan nan nan nan nan nan nan nan nan nan nan nan nan nan nan nan nan nan nan nan nan nan nan nan nan nan nan nan nan nan nan nan nan nan nan nan nan nan nan nan nan nan nan nan nan nan nan nan nan nan
nan nan nan nan nan nan nan nan nan nan nan nan nan nan nan -0 -0 -0 -0 nan nan nan nan nan nan nan nan nan nan nan nan nan -0 -0 -0 nan nan nan nan nan nan nan nan nan nan nan nan nan nan nan nan nan nan nan nan nan nan nan nan nan nan nan nan nan nan nan nan nan nan nan nan nan nan nan nan nan nan nan nan nan nan nan nan nan nan nan
nan nan nan nan nan nan nan nan nan nan nan nan nan nan nan nan nan nan -0 -0 -0 nan nan nan nan nan nan nan nan nan nan nan -0 -0 -0 nan nan nan nan nan nan nan nan nan nan nan nan nan nan nan nan nan nan nan nan nan nan nan nan nan nan nan nan nan nan nan nan nan nan nan nan nan nan nan nan nan nan nan nan nan nan nan nan nan nan nan
nan nan nan nan nan nan nan -0 -0 -0 nan nan nan nan nan nan nan nan -0 -0 -0 nan nan nan nan nan nan nan nan nan nan nan -0 -0 -0 nan nan nan nan nan nan nan nan nan nan nan nan nan nan nan nan nan nan nan nan nan nan nan nan nan nan nan nan nan nan nan nan nan nan nan nan nan nan nan nan nan nan nan nan nan nan nan nan nan nan nan
nan nan nan nan nan nan nan -0 -0 -0 -0 nan nan nan nan nan nan nan nan nan nan -0 -0 -0 -0 nan nan nan nan nan nan nan -0 -0 -0 nan nan nan nan nan nan nan nan nan nan nan nan nan nan nan nan nan nan nan nan nan nan nan nan nan nan nan nan nan nan nan nan nan nan nan nan nan nan nan nan nan nan nan nan nan nan nan -0 nan nan nan
nan nan nan nan nan nan nan nan nan nan nan nan nan nan nan nan nan nan nan nan nan nan -0 -0 -0 -0 -0 nan nan nan nan nan nan nan nan nan nan nan nan nan nan nan nan nan nan nan nan nan nan nan nan nan nan nan nan nan nan nan nan nan nan nan nan nan nan nan nan nan nan nan nan nan nan nan nan nan nan nan nan nan nan nan nan nan nan nan
nan nan nan nan nan nan nan nan nan nan nan nan nan nan nan nan nan nan nan nan nan nan nan nan nan -0 -0 -0 nan nan nan nan nan nan nan nan nan nan nan -0 -0 -0 nan nan nan nan nan nan nan nan nan nan nan nan nan nan nan nan nan nan nan nan nan nan nan nan nan nan nan nan nan nan nan nan nan nan nan nan nan nan nan nan nan nan nan nan
nan nan nan nan nan nan nan nan nan nan nan nan nan nan nan nan nan nan nan nan nan nan nan nan nan nan -0 -0 -0 -0 nan nan nan nan nan nan nan nan nan nan nan -0 nan nan nan nan nan nan nan nan nan nan nan nan nan nan nan nan nan nan nan nan nan nan nan nan nan nan nan nan nan nan nan nan nan nan nan nan nan nan nan nan nan nan nan nan
nan nan nan -0 -0 nan nan nan nan nan nan nan nan nan nan nan nan nan nan nan nan nan nan nan nan nan nan nan nan nan nan nan nan nan nan nan nan nan nan nan nan nan nan nan nan nan nan nan nan nan nan nan nan nan nan nan nan nan nan nan nan nan nan nan nan nan nan nan nan nan nan nan nan nan nan nan nan nan nan nan nan nan nan nan nan nan
nan nan nan nan nan nan nan nan nan nan nan nan nan nan nan nan nan nan nan nan nan nan nan nan nan nan nan nan nan nan nan nan nan nan nan nan nan nan nan nan nan nan nan nan nan nan nan nan nan nan nan nan nan nan nan nan nan nan nan nan nan nan nan nan nan nan nan nan nan nan nan nan nan nan nan nan nan nan nan nan nan nan nan nan nan nan
-0 nan nan nan nan nan nan nan nan nan nan nan nan nan nan nan nan nan nan nan nan nan nan nan nan nan nan nan nan nan nan nan nan nan nan nan nan nan nan nan nan nan nan nan nan nan nan nan nan nan nan nan nan nan nan nan nan nan nan nan nan nan nan nan nan nan nan nan nan nan nan nan nan nan nan nan nan nan nan nan nan nan nan nan nan nan
nan nan nan nan nan nan nan nan nan nan nan nan nan nan nan nan nan nan nan nan nan nan nan nan nan nan nan nan nan nan nan nan nan nan nan nan nan nan nan nan nan nan nan nan nan nan nan nan nan nan nan nan nan nan nan nan nan nan nan nan nan nan nan nan nan nan nan nan nan nan nan nan nan nan nan nan nan nan nan nan nan nan nan nan nan nan
nan nan nan nan nan nan nan nan nan nan nan nan nan nan nan nan nan nan nan nan nan nan nan nan nan nan nan nan nan nan nan nan nan nan nan nan nan nan nan nan nan nan nan nan nan nan nan nan nan nan nan nan nan nan nan nan nan nan nan nan nan nan nan nan nan nan nan nan nan nan nan nan nan nan nan nan nan nan nan nan nan nan nan nan nan nan
nan nan nan nan nan nan nan nan nan nan nan nan nan nan nan nan nan nan nan nan nan nan nan nan nan nan nan nan nan nan nan nan nan nan nan nan nan nan nan nan nan nan nan nan nan nan nan nan nan nan nan nan nan nan nan nan nan nan nan nan nan nan nan nan nan nan nan nan nan nan nan nan nan nan nan nan nan nan nan nan nan nan nan nan nan nan
nan nan nan nan nan nan nan nan nan nan nan nan nan nan nan nan nan nan nan nan nan nan nan nan nan nan nan nan nan nan nan nan nan nan nan nan nan nan nan nan nan nan nan nan nan nan nan nan nan nan nan nan nan nan nan nan nan nan nan nan nan nan nan -0 -0 nan nan nan nan nan nan nan nan nan nan nan nan nan nan nan nan nan nan nan nan nan
nan nan nan nan nan nan nan nan nan nan nan nan nan nan nan nan nan nan nan nan nan nan nan nan nan nan nan nan nan nan nan nan nan nan nan nan nan nan nan nan nan nan nan nan nan nan nan nan nan nan nan nan nan nan nan nan nan nan nan nan nan nan -0 -0 -0 nan nan nan nan nan nan nan nan nan nan nan nan nan nan nan nan nan nan nan nan nan
nan nan nan nan nan nan nan nan nan nan nan nan nan nan nan nan nan nan nan nan nan nan nan nan nan nan nan nan nan nan nan nan nan nan nan nan nan nan nan nan nan nan nan nan nan nan nan nan nan nan nan nan nan nan nan nan nan nan nan nan nan -0 -0 -0 -0 nan nan nan nan nan nan nan nan nan nan nan nan nan nan nan nan nan nan nan nan nan
nan nan nan nan nan nan nan nan nan nan nan nan nan nan nan nan nan nan nan nan nan nan nan nan nan nan nan nan nan nan nan nan nan nan nan nan nan nan nan nan nan nan nan nan nan nan nan nan nan nan nan nan nan nan nan nan nan nan nan -0 -0 -0 -0 nan nan nan nan nan nan nan nan nan nan nan nan nan nan nan nan nan nan nan nan nan nan nan
nan nan nan nan nan nan nan nan nan nan nan nan nan nan nan nan nan nan nan nan nan nan nan nan nan nan nan nan nan nan nan nan nan nan nan nan nan nan nan nan nan nan nan nan nan nan nan nan nan nan nan nan nan nan nan -0 -0 -0 -0 -0 -0 -0 -0 nan nan nan nan nan nan nan nan nan nan nan nan nan nan nan nan nan nan nan nan nan nan nan
-0 nan nan nan nan nan nan nan nan nan nan nan nan nan nan nan nan nan nan nan nan nan nan nan nan nan nan nan nan nan nan nan nan nan nan nan nan nan nan nan nan nan nan nan nan nan nan nan nan nan -0 -0 -0 -0 nan -0 -0 -0 -0 -0 -0 -0 nan nan nan nan nan nan nan nan nan nan nan nan nan nan nan nan nan nan nan nan nan nan nan nan
Wind_Speed
1 2 3 4 5 5 5 7 7 7 6 6 6 6 6 6 6 6 8 9 9 9 8 9 10 11 12 15 17 18 18 17 17 17 16 16 16 16 17 17 18 18 19 19 19 19 20 20 20 20 20 19 19 19 19 19 19 20 19 19 18 17 17 17 16 17 17 17 18 18 18 18 18 17 17 17 16 16 15 15 14 13 12 12 11 10
2 2 3 5 6 5 5 6 7 7 7 7 7 7 7 7 6 5 6 7 8 8 8 9 10 11 12 13 15 17 18 18 17 17 17 17 17 17 17 17 18 18 19 19 19 19 19 19 20 20 20 19 19 18 18 18 19 19 19 18 18 18 17 17 17 17 17 17 17 17 18 18 17 17 17 17 16 15 15 14 13 12 12 11 11 10
3 3 3 5 6 6 5 6 6 7 7 8 8 8 9 9 7 6 5 5 6 6 7 8 9 10 11 12 14 17 18 18 18 17 17 17 17 17 17 17 18 18 19 19 19 19 19 19 19 19 19 19 19 18 18 18 18 18 17 17 17 17 17 17 17 17 17 17 17 17 17 17 17 17 16 16 15 15 14 13 12 12 11 11 10 10
4 4 4 4 5 5 5 5 5 5 5 6 7 8 9 8 7 6 5 5 5 5 6 7 8 9 9 10 12 15 17 18 18 18 18 18 18 18 18 18 18 19 19 19 19 19 19 19 19 19 18 18 18 18 18 17 17 17 16 16 16 16 16 15 15 16 16 16 16 16 16 16 16 16 16 15 15 14 13 13 12 11 11 10 10 9
3 3 4 4 4 3 4 4 4 4 4 5 6 7 7 6 6 5 5 5 5 5 5 6 7 7 7 8 10 14 16 17 17 18 18 18 18 18 18 18 18 19 19 19 19 19 19 19 18 18 18 18 18 17 17 17 17 16 16 16 15 15 15 15 15 15 15 15 15 15 15 15 15 15 15 14 14 13 13 12 11 11 10 10 9 9
2 2 2 2 2 2 2 3 4 4 4 4 5 5 5 5 5 5 5 5 5 4 4 4 4 5 6 7 10 13 15 16 17 17 17 18 18 18 18 18 19 19 19 19 19 19 18 18 18 17 17 17 17 17 17 17 16 16 16 15 15 15 15 15 15 14 14 14 14 14 14 14 13 13 13 13 13 12 12 11 11 10 10 9 9 8
2 1 1 1 2 2 2 3 4 5 4 4 4 4 4 4 4 5 6 5 5 4 4 3 3 3 4 6 9 11 13 14 15 16 17 17 18 18 18 18 18 18 18 18 18 18 18 17 17 17 17 17 17 17 17 17 16 16 16 15 15 15 15 15 15 15 14 14 14 13 13 12 12 11 11 11 11 11 11 11 10 10 9 9 8 8
3 2 1 2 2 2 2 2 2 3 4 5 5 5 4 4 4 5 6 5 5 4 4 3 3 3 3 5 8 10 10 11 12 13 14 15 16 16 17 17 17 17 17 17 17 17 17 17 17 17 17 17 17 17 17 17 16 16 16 15 15 15 15 15 15 15 15 14 13 13 12 11 10 10 9 9 9 10 10 10 10 10 9 8 8 7
4 3 1 1 2 2 2 2 1 1 2 4 6 7 7 6 5 4 5 4 4 3 3 4 4 4 3 3 5 7 8 8 8 9 10 11 12 13 14 15 16 16 16 16 16 16 16 16 16 16 17 17 17 17 17 17 16 16 15 15 15 15 15 15 15 15 15 14 13 13 12 11 10 9 8 8 8 9 10 10 10 9 9 8 7 7
3 3 2 2 1 2 2 2 2 2 1 1 4 5 6 7 7 6 5 4 3 2 2 4 5 5 5 3 2 4 6 7 7 7 8 8 9 10 11 11 12 13 14 14 14 15 15 15 15 16 16 16 17 17 16 16 16 15 15 15 14 14 15 15 15 15 15 14 14 13 12 12 10 9 8 8 8 9 9 10 10 9 8 8 7 7
3 3 2 2 2 2 2 2 2 2 2 2 2 3 4 6 7 8 8 6 4 3 2 2 3 4 4 2 2 1 3 5 6 7 7 8 8 9 9 9 9 10 12 12 12 13 13 14 14 14 15 15 16 16 15 15 15 14 14 14 14 14 14 14 15 15 15 14 14 14 13 12 11 10 9 9 9 9 10 9 9 9 8 7 7 7
3 2 2 2 2 2 2 2 2 2 3 3 4 4 4 4 5 7 8 8 7 5 4 3 3 3 3 3 2 2 1 4 5 6 6 6 7 7 7 7 8 9 10 10 10 11 11 12 12 13 13 14 14 14 14 13 13 13 13 13 13 13 13 13 14 14 14 14 14 14 13 13 12 11 10 10 10 10 10 9 9 8 8 7 7 7
2 2 2 2 2 2 2 2 2 2 3 3 4 5 5 4 4 5 6 7 7 6 5 4 3 3 4 3 2 2 1 3 4 5 4 4 4 4 5 5 6 6 7 7 7 8 9 10 11 11 12 12 13 13 12 12 11 11 12 12 12 12 12 12 13 13 14 14 14 14 14 13 13 12 12 11 11 10 10 9 9 8 8 8 8 7
2 1 2 3 3 3 3 4 4 4 3 2 2 3 3 2 3 4 5 6 6 6 6 5 4 3 3 3 3 2 1 3 4 5 4 3 3 3 3 4 4 4 4 5 4 4 5 7 8 9 11 11 12 12 11 11 11 11 11 11 11 11 11 12 12 13 13 14 14 15 14 14 14 13 13 12 12 11 11 10 10 9 9 9 8 8
2 2 3 3 3 3 4 4 4 4 3 2 2 2 2 2 2 4 5 6 6 6 6 6 5 4 2 3 3 2 1 2 5 6 5 4 3 3 2 3 4 4 4 4 4 3 3 3 5 7 9 10 11 10 10 10 11 11 11 11 11 11 11 11 12 13 13 14 15 15 15 15 14 14 14 13 12 12 11 11 11 10 10 10 9 9
2 3 3 3 3 2 2 2 3 3 3 2 2 2 2 2 2 3 5 7 7 6 6 6 5 3 2 2 2 2 2 2 4 6 6 3 3 3 2 3 4 5 4 4 3 3 2 2 3 5 7 9 10 10 11 11 12 12 12 12 12 12 12 13 13 14 14 15 16 16 16 15 15 15 14 14 13 13 12 12 11 11 11 10 10 9
2 2 2 3 3 2 2 2 2 2 3 3 2 2 2 3 3 3 4 6 6 6 6 5 4 3 2 1 2 2 2 1 3 5 6 4 3 3 3 2 4 5 4 4 3 3 3 3 4 4 6 8 10 11 12 12 13 13 13 13 14 14 14 14 15 15 16 16 16 16 16 16 15 15 14 14 13 13 13 12 12 11 11 11 10 10
2 2 2 3 3 2 2 2 2 2 2 2 3 3 2 2 3 3 3 4 5 6 6 5 5 4 3 2 1 1 2 1 3 5 5 4 3 3 3 2 3 5 5 4 4 3 3 3 4 5 6 10 12 13 13 14 14 15 15 15 16 16 16 16 17 17 17 17 17 17 16 16 15 15 14 14 14 13 13 12 12 11 11 11 10 10
3 3 3 3 3 2 2 2 2 2 1 2 3 3 3 3 3 4 3 3 4 5 6 5 5 4 4 3 2 1 1 0 3 5 5 4 3 3 3 2 3 5 5 4 4 3 3 4 6 7 9 12 13 14 15 15 16 16 17 17 17 17 18 18 18 18 18 17 17 17 16 16 15 15 14 14 14 13 13 12 12 11 11 10 10 9
5 4 4 3 3 2 3 2 2 2 1 0 2 3 4 5 5 5 5 5 4 4 4 4 4 4 4 4 3 1 1 0 2 4 5 4 3 2 3 2 4 5 5 4 3 3 3 5 7 9 11 13 14 16 16 17 17 18 18 18 18 18 18 18 18 18 18 18 17 16 16 15 15 15 14 14 13 13 12 12 11 11 10 10 9 9
6 6 5 4 3 2 2 2 2 2 2 1 1 2 4 5 5 6 6 6 5 4 3 3 3 3 3 4 3 1 1 1 3 4 4 3 3 2 2 2 3 5 5 4 3 3 4 6 7 8 10 13 15 17 18 18 19 19 19 19 19 19 19 18 18 18 18 17 17 16 16 15 15 14 14 13 13 12 12 11 11 10 10 10 9 8
6 6 6 5 4 3 3 3 3 3 3 2 1 1 2 3 4 5 6 5 5 4 3 3 4 4 5 5 4 2 2 1 3 4 4 3 3 2 2 1 3 5 5 3 3 3 5 6 7 8 11 14 16 17 18 19 19 19 19 19 19 19 19 18 18 18 17 17 16 16 15 15 14 14 13 13 12 12 11 11 10 10 10 9 9 8
7 6 6 7 6 5 4 4 4 4 4 3 2 2 1 1 2 3 3 4 4 5 5 6 6 5 6 5 4 3 3 2 2 3 5 5 4 2 1 2 3 5 4 3 3 4 5 6 7 8 12 16 17 18 18 18 19 19 19 19 19 19 18 18 18 17 17 16 16 15 15 14 13 13 12 12 11 11 11 10 10 10 9 9 8 8
8 7 7 7 6 6 5 4 4 4 4 3 3 3 2 2 2 2 3 4 6 7 7 7 7 6 5 5 5 4 4 3 2 2 4 5 4 3 1 2 4 5 4 4 4 5 5 6 6 7 9 14 16 17 18 18 18 18 19 19 18 18 18 17 17 17 16 16 15 15 14 13 13 12 12 11 11 10 10 10 10 10 9 9 8 8
9 9 8 9 10 10 8 7 7 6 5 4 4 3 3 3 3 4 5 6 7 7 7 7 7 6 4 4 4 3 3 4 3 2 3 4 4 3 2 2 4 4 4 4 4 4 5 5 6 6 7 10 14 16 17 17 17 18 18 18 18 17 17 16 16 16 16 15 15 14 13 13 12 12 11 11 10 10 10 10 9 9 9 8 8 7
15 15 15 16 17 18 18 16 15 14 12 8 6 4 3 3 4 5 6 6 6 7 7 7 6 5 3 3 3 2 2 3 3 3 2 4 5 4 3 3 4 4 4 4 4 4 5 5 5 6 6 7 10 14 16 17 17 17 17 17 17 16 16 16 16 15 15 15 14 13 13 12 11 11 10 10 10 9 9 9 9 9 8 7 7 7
22 22 23 23 22 22 22 21 21 21 19 16 12 9 5 3 4 6 6 4 4 5 7 7 6 5 3 3 3 2 2 3 3 3 2 3 5 5 4 4 4 5 5 4 4 5 6 6 5 6 6 6 7 10 14 15 16 16 16 16 16 16 15 15 15 15 14 14 14 13 12 12 11 10 10 10 9 9 9 9 8 8 7 6 5 5
23 23 22 22 22 22 22 22 22 23 23 22 19 16 9 6 5 5 4 2 1 3 5 7 7 5 4 3 3 2 3 3 3 3 3 2 4 6 5 5 5 5 5 4 4 5 7 6 5 5 5 5 6 7 10 12 13 14 15 15 15 15 15 15 15 14 14 14 13 13 12 11 10 10 9 9 9 8 8 8 7 7 5 4 3 3
20 20 21 21 20 20 20 19 20 22 23 23 21 18 12 8 6 5 3 2 1 2 4 6 6 5 5 4 3 3 3 3 3 4 3 1 4 5 5 6 5 5 5 4 4 4 5 4 4 4 4 5 5 6 7 8 10 11 12 14 14 14 14 14 14 14 14 13 13 12 11 11 10 9 9 9 8 8 7 7 6 5 4 3 2 2
14 15 16 17 17 16 15 15 16 18 21 22 20 17 12 9 7 5 4 3 2 2 4 5 5 5 6 5 4 3 3 3 3 4 3 1 3 5 6 6 5 5 4 4 4 3 3 3 3 3 3 4 5 5 5 5 6 6 7 9 11 12 13 13 13 13 13 13 12 12 11 10 9 9 8 8 8 7 6 6 5 4 2 2 2 2
11 11 11 12 12 12 11 11 12 13 16 17 17 15 11 9 7 6 5 5 4 4 4 4 4 4 4 4 3 3 2 2 3 4 3 1 3 5 6 6 5 3 2 3 4 4 3 2 1 2 3 4 4 4 4 4 4 4 4 5 6 8 10 11 12 12 12 12 12 11 11 10 9 8 8 8 7 7 6 5 4 3 2 1 1 2
9 9 9 9 9 9 9 9 9 10 11 12 12 11 11 10 8 7 7 6 6 5 5 5 5 4 3 3 3 3 2 1 3 4 3 1 2 3 4 5 4 2 1 0 2 4 5 3 2 2 2 3 3 3 3 3 3 3 3 3 4 5 7 8 9 9 10 11 11 11 10 9 9 8 8 7 7 7 6 5 4 3 2 1 1 1
8 8 8 8 8 8 8 9 9 9 9 9 9 9 9 9 9 9 8 7 7 6 6 6 6 5 5 5 5 4 3 2 3 4 3 1 2 2 2 3 3 2 1 2 2 3 4 4 4 3 3 3 3 3 3 3 3 2 2 3 3 4 5 5 6 6 6 7 8 8 9 8 8 8 8 7 7 6 6 5 5 3 2 1 1 1
8 8 8 8 8 8 8 9 9 9 9 9 9 9 8 8 9 9 9 8 8 7 7 6 6 5 5 5 5 4 3 3 4 5 4 2 2 2 2 2 2 2 2 2 3 3 4 4 4 4 4 3 3 3 3 2 2 2 2 3 3 3 3 3 4 4 4 4 5 5 5 6 6 6 7 7 6 6 6 5 5 4 4 3 2 2
8 8 8 8 8 8 8 9 9 9 9 9 9 9 8 8 8 8 8 8 8 8 8 7 7 6 5 5 4 4 3 3 5 5 4 2 2 2 3 2 2 2 2 2 2 3 3 4 5 5 4 4 3 3 2 2 2 2 2 3 3 3 3 3 3 3 3 3 3 3 3 3 4 4 5 5 6 6 5 5 5 5 5 4 4 3
8 8 8 8 8 8 8 8 8 8 8 8 8 8 8 8 8 8 8 8 9 9 9 9 8 8 7 6 5 5 4 4 5 6 5 3 3 3 3 2 2 2 2 2 3 3 4 4 5 6 5 4 3 3 2 2 2 2 3 3 3 3 3 3 2 2 2 3 3 3 3 3 3 3 4 5 5 5 5 5 5 5 5 6 5 5
7 8 8 7 7 7 7 7 7 7 7 7 7 7 8 8 8 8 8 8 8 9 9 10 10 10 10 8 7 6 5 4 5 6 6 5 4 3 3 3 3 3 3 3 3 3 4 4 5 5 4 4 3 3 2 2 2 3 3 3 3 3 3 3 2 2 2 2 3 3 3 3 3 3 3 4 4 4 4 5 5 5 6 6 6 6
7 7 7 7 7 7 7 7 6 6 6 6 6 6 7 8 8 8 8 8 9 9 9 9 9 10 13 12 10 9 8 8 8 9 9 7 5 5 4 4 4 4 3 3 3 4 4 4 4 4 3 3 3 3 3 3 3 3 3 3 3 3 3 2 2 2 2 2 3 3 3 3 3 2 2 3 2 2 3 3 4 4 5 5 5 5
7 7 7 7 7 6 6 6 6 6 6 5 5 6 6 7 8 8 7 8 9 9 9 9 9 9 12 12 12 12 11 11 11 11 10 9 7 6 5 4 4 4 4 3 3 3 3 3 3 3 3 3 3 3 2 2 2 3 3 3 3 3 2 2 2 2 2 2 2 3 3 3 2 2 2 2 2 2 2 2 3 3 4 3 4 4
7 6 7 7 7 6 6 6 5 5 5 5 5 5 5 5 6 6 7 7 8 8 9 9 9 9 9 10 11 11 11 11 11 11 10 9 8 6 5 5 4 4 4 4 4 3 3 3 3 3 3 3 3 3 2 2 2 3 3 3 2 2 2 2 2 2 2 2 2 2 2 2 2 2 2 2 2 2 2 2 2 3 3 3 3 3
6 6 6 6 6 6 6 5 5 5 5 5 5 5 5 4 4 5 5 6 6 6 6 7 8 8 8 9 10 10 10 10 11 11 10 10 9 8 6 5 4 4 4 4 4 4 3 3 3 3 3 3 3 4 3 3 3 3 3 2 2 2 2 2 2 2 2 3 3 3 3 2 2 2 2 2 2 2 2 2 3 3 2 2 2 3
6 6 5 5 5 5 5 5 5 5 5 5 5 5 5 4 4 4 4 4 5 5 5 5 6 7 7 8 8 9 9 9 10 11 11 11 10 9 7 6 4 4 4 4 4 4 4 4 3 3 3 3 3 3 3 3 3 2 2 2 1 1 1 2 2 2 3 3 3 3 3 3 2 2 2 2 2 2 2 2 3 3 3 2 2 2
5 5 5 4 4 4 5 5 5 5 5 5 5 5 5 5 4 4 4 4 4 5 4 4 5 5 6 6 6 7 8 9 10 11 11 11 11 10 8 7 6 4 4 4 4 4 4 4 4 3 3 2 2 3 3 3 3 2 2 1 1 0 1 1 2 3 3 3 3 3 3 3 2 2 2 2 2 2 2 2 3 3 3 3 3 2
4 4 4 4 4 4 4 5 5 5 5 5 5 5 5 5 5 5 4 4 4 4 4 4 4 5 6 6 6 6 6 7 9 10 10 11 11 9 8 8 7 6 5 4 3 3 3 4 4 3 3 2 2 2 3 2 2 2 2 1 1 1 1 1 2 3 3 3 3 3 3 3 2 2 2 2 2 2 2 2 2 2 3 3 3 3
4 4 4 4 4 4 5 5 5 5 5 5 5 5 5 5 5 5 4 4 4 4 4 4 3 4 5 5 5 5 5 5 6 7 8 10 10 10 8 7 6 6 5 4 4 3 3 3 3 3 2 2 2 2 2 2 2 2 2 2 1 1 2 2 3 3 3 3 3 3 3 3 3 3 2 2 2 2 2 3 3 3 3 3 3 3
4 4 4 4 4 4 5 5 4 4 5 5 5 5 5 5 5 5 5 5 5 5 4 4 4 4 4 4 4 4 4 4 5 5 5 6 7 7 7 6 6 5 4 4 4 3 3 3 3 3 2 2 2 2 2 1 1 1 2 2 2 2 3 3 3 3 3 3 3 3 4 3 3 3 3 3 3 3 3 3 3 3 3 3 3 3
4 4 4 4 4 4 4 4 4 4 5 5 5 5 5 5 5 5 5 5 5 4 5 5 5 5 5 4 4 4 4 4 4 4 4 5 5 6 6 5 5 5 4 3 3 3 3 3 2 2 2 2 2 2 2 1 1 1 1 1 2 2 3 3 3 3 3 3 3 4 4 4 3 3 4 4 4 4 3 3 3 3 3 3 3 4
4 4 4 4 3 4 4 4 4 4 4 4 4 5 5 5 5 5 4 5 4 4 4 5 5 5 5 5 5 5 5 5 5 4 4 5 5 5 5 4 4 4 3 3 3 3 3 3 2 1 1 1 1 2 2 2 1 1 2 2 2 2 3 3 3 2 2 3 4 4 4 4 4 4 4 4 4 4 4 4 3 3 3 3 3 4
4 4 4 3 3 3 3 4 4 4 4 4 4 4 4 5 6 6 4 4 4 4 4 5 5 5 5 5 5 5 5 5 4 4 4 4 4 4 4 4 4 3 3 3 3 3 3 3 2 2 1 1 1 2 3 3 2 2 2 2 2 2 3 3 2 2 3 3 4 4 4 3 3 3 4 5 5 5 5 4 4 3 3 3 3 4
4 4 4 3 3 3 3 4 4 4 4 4 4 4 4 4 4 5 4 4 4 4 4 5 5 5 5 5 5 5 5 4 4 4 4 4 4 4 4 4 4 3 2 2 2 2 2 2 2 2 2 2 2 2 3 3 3 3 3 3 3 3 2 2 3 3 3 4 4 4 4 4 3 3 3 4 5 5 5 5 4 3 2 3 3 4
4 4 4 4 3 3 3 4 4 4 4 4 3 3 3 4 4 4 4 4 4 4 4 4 5 5 5 5 5 5 5 4 4 4 4 4 4 4 4 4 4 4 3 2 2 2 2 2 2 2 3 4 4 4 3 3 3 3 3 3 3 3 2 2 3 3 4 4 4 4 4 4 3 3 3 3 4 5 5 5 4 4 3 3 3 4
Wind_Direction
132 145 159 176 166 154 154 166 165 158 148 144 144 146 145 149 155 160 160 154 147 140 137 137 138 138 138 139 139 139 139 139 139 138 137 135 133 130 129 129 129 129 130 130 130 131 133 134 135 136 138 139 140 140 141 141 141 142 143 142 141 139 136 133 129 125 122 121 119 118 117 116 115 114 112 109 108 106 104 103 101 99 97 94 91 88
138 146 162 173 165 155 151 169 172 167 154 150 148 148 148 149 152 155 158 150 145 142 140 139 140 141 141 140 140 141 141 140 140 140 140 139 137 136 134 133 133 133 134 134 135 135 136 137 138 139 141 142 142 142 142 142 142 143 143 142 140 138 135 131 128 124 121 119 117 116 116 115 114 113 111 110 108 107 106 105 104 102 100 97 93 89
151 155 162 169 168 165 158 170 176 172 157 152 150 150 150 150 152 153 153 147 145 143 142 142 142 142 142 142 142 142 142 142 142 143 143 142 141 140 139 139 139 139 139 139 140 140 141 141 142 142 143 143 143 143 142 142 142 142 142 140 138 136 133 129 126 122 119 117 116 115 114 113 113 112 111 110 110 110 109 109 107 105 103 99 95 91
158 161 159 164 168 170 167 168 169 167 154 145 145 148 151 151 152 151 147 143 140 140 140 143 143 142 141 142 143 144 144 144 144 145 145 145 144 144 144 144 144 144 144 144 144 144 145 144 144 144 144 144 143 143 143 142 142 141 140 138 135 133 129 126 123 121 118 117 116 114 114 113 112 112 112 113 113 114 114 113 111 108 105 101 96 91
157 157 154 157 158 160 165 163 160 154 137 133 138 145 151 151 149 145 139 135 134 134 136 142 143 143 142 142 144 145 145 145 146 147 147 147 147 147 147 148 148 148 148 147 147 147 147 146 146 145 145 144 144 144 143 142 141 140 138 135 133 130 127 125 122 120 118 117 116 115 114 114 114 114 116 117 118 119 118 116 113 110 106 102 97 92
134 133 142 146 138 132 140 157 159 152 136 130 134 141 149 149 145 141 138 134 132 130 126 126 132 138 141 141 143 146 146 147 147 148 149 149 150 150 150 151 151 151 150 150 149 149 148 148 147 146 146 145 145 144 144 143 141 139 137 135 132 130 128 126 124 123 121 119 118 117 116 116 116 117 119 121 122 122 121 119 115 112 107 103 98 92
116 108 116 111 103 104 116 151 159 157 146 137 136 140 145 145 143 141 139 137 136 132 123 106 101 111 126 137 142 144 146 147 147 148 150 151 151 152 153 153 153 153 152 151 150 150 149 149 148 148 147 147 147 146 145 144 142 140 138 136 134 132 131 130 128 126 125 123 121 120 119 118 118 118 120 122 123 124 123 121 117 113 109 104 99 94
124 120 111 100 101 104 110 127 148 153 149 144 146 149 152 146 139 135 134 135 135 135 129 117 103 95 99 131 142 145 147 147 147 149 150 151 152 153 154 154 154 154 153 152 151 151 150 150 150 150 150 150 149 149 147 146 144 142 140 138 137 136 135 133 132 130 129 127 125 124 122 121 120 119 119 121 122 123 123 122 118 114 111 107 102 97
130 128 110 91 107 125 136 109 82 82 122 146 153 156 157 151 141 132 131 131 128 127 132 134 128 118 104 115 138 148 148 148 148 150 151 152 153 153 153 154 154 153 152 151 151 151 151 151 152 152 152 152 152 151 149 147 146 144 142 141 140 139 138 137 135 134 133 131 130 128 127 125 123 121 119 118 119 121 122 120 118 115 112 109 105 101
123 126 109 79 84 114 137 117 88 52 30 129 155 159 159 154 149 144 143 138 129 118 125 141 140 135 122 102 114 140 146 143 140 138 139 140 144 148 149 149 150 150 149 149 150 150 151 152 152 153 153 153 153 151 150 148 146 145 144 143 142 141 140 139 138 137 136 135 134 132 131 129 127 125 121 117 116 117 118 118 117 115 114 112 109 105
116 119 108 86 65 57 79 100 100 91 85 113 142 157 160 157 155 154 154 151 145 135 118 116 122 124 120 94 66 78 134 139 134 128 125 123 129 135 137 138 140 142 144 145 146 147 149 150 152 152 153 152 151 150 148 147 146 145 144 144 143 142 141 141 140 139 139 138 137 136 135 134 132 128 123 119 116 115 115 116 116 116 116 114 111 107
116 116 110 100 77 57 56 79 92 103 118 131 148 162 172 167 164 161 160 156 152 144 127 98 78 74 77 66 44 28 67 139 138 132 126 124 125 128 131 132 133 136 140 141 142 143 145 147 149 150 151 149 148 147 147 147 146 145 144 143 143 142 142 142 142 142 141 141 140 138 138 136 134 130 126 122 119 116 115 115 115 115 116 114 111 105
102 107 113 122 118 109 108 110 113 121 139 148 157 162 166 167 168 165 160 152 146 140 131 118 96 73 60 51 38 29 62 129 129 123 113 107 110 119 131 131 130 132 137 137 137 140 143 147 148 149 149 148 147 146 146 145 144 143 142 142 142 142 142 143 143 143 142 142 140 139 138 136 134 130 127 123 120 117 115 114 113 112 112 109 105 100
105 110 123 131 138 149 159 157 155 156 161 152 148 148 148 153 161 159 148 136 131 127 125 119 110 92 66 44 31 26 49 118 122 115 101 82 68 73 107 122 121 119 123 120 114 116 133 147 151 151 150 149 147 146 146 144 142 140 139 139 140 140 141 142 142 141 141 140 138 137 136 134 131 128 125 122 118 115 112 110 108 106 104 101 97 93
143 159 153 141 141 149 164 166 165 163 156 126 108 102 91 101 140 153 147 135 129 125 120 115 109 98 77 49 29 13 6 131 132 125 112 83 54 43 69 112 113 108 105 103 95 84 83 130 148 153 154 153 152 150 146 142 138 135 136 136 136 136 136 136 136 135 134 134 133 132 131 129 127 124 121 118 114 111 107 105 102 100 98 95 91 87
153 172 168 148 133 125 137 146 150 148 138 119 107 105 112 119 134 146 149 143 140 137 133 127 121 111 88 60 33 14 347 136 134 127 119 93 49 25 32 109 114 107 97 96 94 89 85 104 128 142 148 147 145 142 140 137 135 133 132 131 131 129 128 127 127 127 126 126 126 125 125 123 121 119 117 113 110 106 103 101 99 96 94 91 87 83
130 160 158 135 116 94 71 68 90 113 124 123 121 123 131 137 137 140 145 148 149 149 150 144 140 135 125 80 35 15 353 104 125 123 117 98 54 16 8 95 116 114 101 96 93 94 101 110 120 128 136 136 135 133 133 132 130 129 128 126 124 122 121 120 120 120 120 120 120 119 119 118 116 114 112 109 106 103 100 98 96 94 92 88 85 80
64 74 98 104 102 90 68 59 60 74 99 117 124 127 129 135 140 146 152 156 159 161 160 156 153 151 145 143 103 22 353 72 121 123 116 101 63 20 6 57 101 107 99 92 89 91 101 115 124 128 129 128 128 128 128 127 126 125 123 122 120 118 117 116 116 115 115 115 115 115 114 113 112 110 108 105 103 101 98 96 95 92 90 87 83 78
49 44 50 70 81 80 67 56 52 55 72 115 132 136 139 146 153 158 162 167 169 168 163 162 160 156 144 139 125 79 332 34 121 119 112 97 63 20 1 49 91 96 87 82 82 88 104 113 114 115 119 122 123 123 123 122 121 120 119 118 117 115 114 114 113 113 112 112 112 111 110 109 108 106 104 102 100 99 97 95 93 91 89 85 81 76
55 43 34 42 59 70 64 48 35 25 19 92 143 146 149 154 160 165 168 170 173 173 168 160 149 136 125 119 110 83 316 48 103 102 100 92 69 26 359 49 94 96 83 72 67 76 102 108 109 110 113 115 116 118 118 118 118 117 116 115 114 113 112 111 111 110 110 109 109 108 107 106 105 103 102 100 98 97 96 95 93 91 89 85 80 75
60 48 31 28 37 55 59 41 25 11 356 347 150 151 152 155 161 166 169 168 168 168 163 139 114 99 102 109 107 83 322 102 108 105 102 92 74 44 7 46 89 95 87 69 51 56 88 98 102 105 109 111 112 113 114 114 114 114 113 112 111 111 110 109 109 109 108 107 107 106 105 104 103 101 100 98 97 96 96 95 93 92 89 84 79 73
62 53 39 35 37 42 46 36 22 12 4 12 46 121 143 152 159 162 163 161 156 147 123 99 86 84 88 95 92 69 358 71 117 121 114 103 89 63 10 48 91 97 92 69 45 45 68 84 92 99 105 106 107 109 110 111 111 111 111 110 109 108 108 107 107 107 107 106 105 105 104 102 101 100 98 97 97 96 96 95 93 91 88 83 77 71
62 56 47 42 40 40 38 32 22 15 12 22 33 42 41 105 139 144 142 135 123 111 99 93 89 86 85 86 78 58 28 31 81 114 112 112 110 99 25 79 95 97 93 71 46 40 51 62 75 88 97 100 102 104 106 107 108 108 108 107 106 106 106 106 105 105 105 104 104 103 102 100 99 98 97 96 96 95 95 94 92 88 84 79 73 66
56 55 50 45 42 40 38 33 27 23 20 26 31 34 31 41 62 80 86 95 101 104 106 104 99 92 86 83 74 56 31 14 23 82 108 113 115 112 75 91 98 96 85 59 41 38 49 54 58 68 86 94 97 99 101 103 103 103 103 103 103 103 104 104 104 103 103 102 102 100 99 98 97 96 95 94 94 93 93 91 88 84 80 74 67 60
51 51 49 46 43 42 42 41 40 38 35 31 29 29 34 59 78 86 88 95 103 110 114 110 105 100 95 86 75 57 29 10 12 54 108 113 114 111 91 90 96 95 84 62 48 47 57 58 56 58 68 83 90 93 95 97 97 98 99 100 101 101 102 102 101 101 101 100 99 98 97 96 94 93 92 91 90 90 89 87 84 81 76 70 63 56
47 46 46 44 42 41 41 43 44 44 43 40 34 26 24 67 91 96 95 102 112 120 119 114 110 107 103 91 80 63 31 15 15 32 91 113 116 114 102 93 95 97 94 78 61 56 62 59 55 50 49 64 79 87 90 92 94 95 96 96 97 98 98 98 98 98 98 97 96 95 94 92 91 89 88 87 86 85 85 83 81 78 74 69 63 56
45 45 44 42 40 38 36 38 40 42 42 41 37 30 22 54 87 93 90 95 117 130 128 125 121 116 105 93 81 66 40 29 20 16 20 103 117 120 124 120 115 111 104 87 69 61 63 59 51 43 38 39 55 72 82 87 90 91 92 92 93 94 94 95 95 95 94 94 93 91 90 88 87 85 83 82 81 80 81 80 78 76 73 70 64 57
43 41 40 38 37 35 33 33 34 37 39 39 36 33 28 41 64 75 70 43 85 137 135 134 132 128 119 108 93 72 50 39 21 3 347 86 116 124 136 136 132 126 116 100 75 62 60 57 49 40 35 33 37 49 64 73 81 85 86 87 88 89 91 91 91 91 91 90 89 87 86 84 82 81 78 77 76 76 77 78 77 75 71 68 63 57
39 38 37 36 35 33 31 30 30 33 36 37 36 34 32 38 48 53 37 1 7 119 130 132 132 129 122 114 100 78 55 39 15 354 339 73 113 125 138 143 142 137 126 115 93 69 56 50 43 38 38 38 38 39 45 55 67 76 79 81 83 85 87 88 88 88 87 86 85 83 81 80 78 76 74 72 71 71 72 75 76 75 70 65 59 52
34 33 33 32 30 30 28 27 27 29 31 34 36 36 36 38 41 37 17 6 26 76 106 114 120 123 124 120 110 90 59 30 3 348 341 70 121 132 142 149 152 149 138 129 118 99 74 53 40 38 44 47 46 43 39 42 50 61 69 74 77 80 83 85 86 85 84 82 80 78 77 75 74 72 71 68 66 64 64 67 70 72 67 59 54 47
32 31 30 28 26 25 25 26 25 26 27 30 31 33 33 34 34 30 20 19 31 53 77 88 98 110 122 126 123 114 90 29 357 347 345 48 123 136 146 152 153 154 152 141 137 134 127 110 73 54 56 59 56 50 43 40 39 42 49 60 68 74 79 82 83 83 81 79 76 74 72 70 69 68 66 63 60 57 53 52 55 60 59 48 40 38
34 33 31 28 26 24 25 25 24 24 25 26 27 27 28 29 30 29 27 26 31 41 57 66 69 69 66 75 89 100 98 46 358 351 354 36 102 122 140 144 143 136 340 59 129 135 135 138 131 110 88 78 71 62 53 47 43 43 45 54 61 68 74 77 80 80 79 76 73 69 66 65 63 61 60 57 54 49 44 39 37 39 40 26 20 23
35 34 31 29 28 27 27 26 26 26 26 26 26 25 25 27 28 30 31 30 32 38 48 58 62 62 58 61 67 74 79 48 4 355 0 43 91 104 116 125 126 115 43 22 51 87 110 124 129 126 113 98 88 80 72 66 60 58 60 69 72 73 74 75 77 78 77 74 70 66 62 59 57 55 53 50 47 42 37 31 26 21 13 3 3 10
36 35 33 32 31 31 30 30 30 29 28 27 26 25 25 25 27 29 32 33 35 38 42 49 56 63 70 73 75 73 67 33 6 359 6 44 91 102 104 106 110 110 95 65 62 71 86 109 122 126 120 110 100 91 85 80 75 72 73 80 84 87 84 83 84 84 82 77 72 66 60 56 53 50 48 45 41 37 32 27 21 16 10 2 358 0
37 35 33 32 32 32 32 32 32 32 31 29 27 26 26 27 28 30 32 36 39 42 43 44 46 50 58 68 74 71 56 21 3 2 11 38 79 95 94 85 81 84 90 88 90 95 102 116 125 128 125 121 113 104 92 86 80 77 74 76 80 84 86 87 89 90 89 83 78 71 62 57 52 48 45 42 38 35 31 27 22 19 15 11 8 6
37 35 33 31 31 31 31 31 32 32 33 31 29 28 29 31 33 34 35 39 43 47 49 49 48 48 49 55 61 61 48 19 6 6 17 33 61 83 89 78 69 69 79 86 94 103 113 122 127 129 128 127 124 118 110 104 93 84 78 76 77 79 80 79 80 83 87 83 78 72 64 59 55 50 46 40 38 35 34 31 27 24 20 18 15 13
38 36 32 30 29 30 30 30 30 31 32 32 32 33 34 37 39 40 42 44 48 52 55 55 55 55 55 57 58 55 47 28 20 19 24 33 50 71 84 80 70 67 76 88 97 105 112 120 125 128 127 126 127 127 127 122 108 93 83 80 80 82 82 76 71 69 72 74 74 70 63 60 56 53 49 41 38 37 36 34 30 26 22 19 16 12
37 34 31 29 27 27 27 27 26 26 27 31 35 40 44 47 49 50 51 53 55 58 61 60 60 59 57 59 58 55 49 40 34 32 31 35 45 61 75 75 66 58 62 75 92 106 115 124 129 129 125 117 113 115 119 119 111 101 94 92 91 91 89 80 69 60 56 61 66 68 65 61 59 57 52 42 37 35 36 31 26 21 17 14 11 8
36 32 29 27 25 25 25 24 22 20 19 25 33 42 50 55 57 58 60 61 62 64 66 67 66 63 58 57 55 52 49 44 40 37 36 37 42 53 66 70 67 61 56 59 68 83 100 116 125 128 125 117 113 109 104 104 107 111 115 115 113 109 105 94 75 56 48 49 56 62 67 63 60 57 53 44 36 28 27 19 13 8 5 359 357 356
35 32 27 25 24 23 24 22 19 16 15 20 27 35 44 53 59 62 66 67 68 69 71 72 71 68 62 58 54 50 48 46 43 41 39 39 41 46 55 61 65 66 62 61 61 65 74 87 99 106 110 119 125 125 122 117 122 130 135 135 133 128 120 106 85 63 52 49 51 55 61 59 56 52 46 41 34 26 17 8 0 356 356 352 346 342
37 33 27 23 21 22 23 21 19 18 20 22 24 25 27 37 48 58 64 67 68 68 71 74 74 72 67 63 57 53 50 49 48 47 45 43 43 45 49 53 57 63 67 68 67 67 70 81 90 97 103 114 122 124 122 122 124 128 132 133 130 123 117 103 82 62 54 57 53 50 48 49 46 40 33 31 28 22 9 356 346 341 342 346 344 337
39 34 27 22 19 19 19 20 22 24 27 29 29 26 22 25 33 46 56 61 62 62 62 69 74 75 72 67 61 56 51 50 50 51 52 48 47 46 48 49 51 58 69 73 73 70 70 76 83 91 99 109 117 122 123 118 110 99 90 96 104 119 134 107 85 63 52 60 57 49 42 39 34 24 13 11 11 7 357 347 338 334 332 334 332 325
36 32 26 22 20 20 21 23 24 26 29 31 31 27 20 19 24 36 49 55 57 58 58 62 68 73 73 69 64 58 53 50 50 51 53 52 51 50 49 48 48 53 65 77 80 78 74 73 74 74 73 85 103 118 125 122 114 102 86 74 69 117 169 104 80 67 61 62 57 47 35 24 13 1 351 347 346 344 340 334 329 326 322 320 315 307
32 29 23 22 23 24 26 27 27 28 31 34 33 29 22 19 23 32 43 50 53 54 54 57 63 67 68 66 63 59 55 50 49 48 50 50 51 51 51 49 48 48 54 70 83 89 88 82 78 74 68 74 88 102 111 115 114 108 98 79 54 26 25 54 58 61 66 65 56 43 27 10 355 340 329 327 327 328 326 322 318 312 308 306 303 298
28 25 22 22 24 26 29 28 28 30 33 35 34 31 26 23 25 31 40 46 47 47 44 47 56 63 62 59 58 56 54 50 47 46 46 46 47 48 50 50 50 50 51 57 67 80 91 93 93 89 81 79 85 92 101 106 110 107 99 85 69 55 53 58 60 62 66 61 50 34 18 1 344 330 322 323 324 323 320 317 313 310 307 304 300 295
27 25 23 22 25 28 29 27 28 31 34 34 32 29 26 26 29 33 38 43 47 47 44 46 53 60 62 57 54 52 51 48 45 42 40 39 39 40 43 46 48 51 54 56 59 66 76 90 100 107 109 106 102 98 93 96 99 96 87 76 76 82 86 81 74 68 60 51 38 23 8 355 343 332 329 327 322 317 314 312 312 311 310 305 300 295
24 24 23 22 24 25 25 25 28 32 35 33 29 25 22 25 31 36 38 41 47 53 54 56 59 62 62 57 53 51 51 47 43 38 34 33 33 33 35 38 41 45 53 59 65 70 76 82 94 108 122 125 123 118 113 104 85 67 67 70 84 96 101 93 82 67 52 41 29 15 3 355 347 341 335 327 319 312 311 311 309 308 305 301 297 295
19 19 20 20 22 24 24 25 29 33 36 34 30 25 20 24 31 37 40 39 45 53 59 62 64 64 63 58 55 53 53 51 45 38 32 27 25 25 26 26 29 35 42 54 66 75 80 78 78 81 94 107 111 111 111 106 87 63 58 69 85 97 99 91 78 61 44 34 24 13 4 358 352 344 335 325 318 313 312 311 307 301 293 291 291 291
18 14 14 16 20 24 24 26 30 34 37 36 34 29 24 26 32 37 41 41 45 50 57 62 65 66 64 59 55 53 53 52 49 42 34 27 22 19 17 16 17 22 33 50 66 76 80 75 70 62 46 43 65 81 91 90 84 76 69 69 74 80 84 76 59 41 26 20 14 9 3 358 352 343 333 323 316 312 310 307 301 292 282 279 281 284
20 16 11 15 20 24 25 27 31 35 38 39 38 36 32 31 33 36 40 45 49 53 55 60 64 67 66 61 57 54 52 51 49 43 36 27 21 17 16 13 11 13 25 47 68 81 85 80 75 71 70 59 56 62 76 86 89 88 80 70 61 55 54 48 37 22 10 4 0 357 353 349 344 338 330 318 311 307 304 300 295 289 280 276 276 278
20 17 12 15 20 24 26 30 33 36 37 41 42 42 41 41 40 40 42 48 54 57 58 60 64 67 68 63 60 55 52 51 49 44 36 27 21 19 19 15 13 12 20 39 60 77 92 98 94 89 84 71 60 54 62 78 89 92 87 72 57 42 31 26 18 8 358 352 347 344 340 336 332 328 324 314 307 302 299 296 294 292 289 285 284 283